THY1HZ LTFM-EBBR

Flight info

Callsign THY1HZ
Flight time 2h 57m
Altitude 36000
Route TUDBU1D/35L TUDBU Q26 ETUBA DCT NAVOD DCT GOVIN DCT MAVIR DCT GITAS DCT ARSIN DCT DEXIT DCT MOOCE DCT TEKTU DCT TESGA DCT UMUPU T880 BATTY
Aircraft A321/M-SDE3FGHIRWY/LB1

Departure

Time 2026-05-05 19:54
Airport İstanbul Airport (LTFM)

Arrival

Time 2026-05-05 22:51
Airport Brussels Airport (EBBR)
Time Latitude Longitude Altitude Speed Heading
2026-05-05 19:17 41.26360 28.74087 329 ft 0 kts 144°
2026-05-05 19:42 41.26366 28.74080 334 ft 4 kts 145°
2026-05-05 19:42 41.26389 28.74061 332 ft 4 kts 151°
2026-05-05 19:42 41.26413 28.74045 330 ft 4 kts 158°
2026-05-05 19:42 41.26438 28.74033 333 ft 4 kts 165°
2026-05-05 19:43 41.26465 28.74026 330 ft 4 kts 177°
2026-05-05 19:43 41.26471 28.74026 332 ft 0 kts 179°
2026-05-05 19:45 41.26456 28.74026 330 ft 5 kts 180°
2026-05-05 19:45 41.26421 28.73997 334 ft 8 kts 240°
2026-05-05 19:45 41.26445 28.73927 332 ft 9 kts 326°
2026-05-05 19:46 41.26498 28.73899 332 ft 8 kts 340°
2026-05-05 19:46 41.26558 28.73880 332 ft 10 kts 358°
2026-05-05 19:46 41.26633 28.73878 331 ft 12 kts 360°
2026-05-05 19:46 41.26718 28.73877 332 ft 12 kts 359°
2026-05-05 19:47 41.26801 28.73874 330 ft 12 kts 359°
2026-05-05 19:47 41.26880 28.73873 330 ft 11 kts 359°
2026-05-05 19:47 41.26955 28.73871 330 ft 11 kts 359°
2026-05-05 19:47 41.27026 28.73861 332 ft 10 kts 334°
2026-05-05 19:48 41.27051 28.73780 334 ft 10 kts 269°
2026-05-05 19:48 41.27049 28.73688 334 ft 9 kts 269°
2026-05-05 19:48 41.27049 28.73616 334 ft 7 kts 269°
2026-05-05 19:48 41.27048 28.73565 334 ft 4 kts 269°
2026-05-05 19:49 41.27047 28.73518 332 ft 7 kts 269°
2026-05-05 19:49 41.27046 28.73426 330 ft 13 kts 269°
2026-05-05 19:49 41.27044 28.73301 334 ft 13 kts 269°
2026-05-05 19:49 41.27042 28.73177 334 ft 14 kts 269°
2026-05-05 19:50 41.27041 28.73052 334 ft 10 kts 269°
2026-05-05 19:50 41.27000 28.72988 330 ft 10 kts 196°
2026-05-05 19:50 41.26928 28.72987 329 ft 11 kts 179°
2026-05-05 19:50 41.26849 28.72989 330 ft 12 kts 179°
2026-05-05 19:51 41.26764 28.72991 331 ft 9 kts 179°
2026-05-05 19:51 41.26724 28.72963 331 ft 2 kts 233°
2026-05-05 19:51 41.26721 28.72955 331 ft 0 kts 239°
2026-05-05 19:51 41.26719 28.72952 332 ft 2 kts 241°
2026-05-05 19:52 41.26713 28.72887 330 ft 12 kts 269°
2026-05-05 19:52 41.26712 28.72736 331 ft 19 kts 269°
2026-05-05 19:52 41.26712 28.72570 330 ft 12 kts 273°
2026-05-05 19:52 41.26748 28.72517 333 ft 8 kts 342°
2026-05-05 19:53 41.26777 28.72513 333 ft 0 kts 358°
2026-05-05 19:53 41.26838 28.72511 333 ft 35 kts 359°
2026-05-05 19:53 41.27333 28.72500 333 ft 105 kts 359°
2026-05-05 19:53 41.28262 28.72477 332 ft 160 kts 359°
2026-05-05 19:54 41.29482 28.72452 638 ft 180 kts 358°
2026-05-05 19:54 41.30730 28.72434 1367 ft 178 kts 359°
2026-05-05 19:54 41.31954 28.72405 2148 ft 174 kts 359°
2026-05-05 19:54 41.33136 28.72372 2912 ft 167 kts 359°
2026-05-05 19:55 41.34283 28.72336 3518 ft 164 kts 359°
2026-05-05 19:55 41.35477 28.72309 3779 ft 181 kts 360°
2026-05-05 19:55 41.36822 28.72252 3936 ft 205 kts 358°
2026-05-05 19:55 41.38321 28.72067 4058 ft 234 kts 347°
2026-05-05 19:56 41.39779 28.70992 4599 ft 249 kts 319°
2026-05-05 19:56 41.40882 28.69174 5352 ft 254 kts 311°
2026-05-05 19:56 41.41968 28.67312 6125 ft 255 kts 313°
2026-05-05 19:56 41.43099 28.65495 6864 ft 256 kts 314°
2026-05-05 19:57 41.44258 28.63667 7553 ft 259 kts 314°
2026-05-05 19:57 41.45035 28.62445 8018 ft 261 kts 314°
2026-05-05 19:57 41.46612 28.59943 8939 ft 266 kts 314°
2026-05-05 19:57 41.47800 28.58036 9647 ft 269 kts 314°
2026-05-05 19:58 41.49004 28.56094 10247 ft 276 kts 314°
2026-05-05 19:58 41.50280 28.54038 10392 ft 299 kts 313°
2026-05-05 19:58 41.51653 28.51823 10548 ft 319 kts 313°
2026-05-05 19:58 41.53084 28.49504 11013 ft 327 kts 313°
2026-05-05 19:59 41.54535 28.47135 11601 ft 331 kts 313°
2026-05-05 19:59 41.55999 28.44736 12200 ft 335 kts 313°
2026-05-05 19:59 41.57483 28.42306 12798 ft 339 kts 313°
2026-05-05 19:59 41.58984 28.39855 13395 ft 343 kts 313°
2026-05-05 20:00 41.60501 28.37380 13977 ft 347 kts 313°
2026-05-05 20:00 41.62038 28.34870 14509 ft 350 kts 313°
2026-05-05 20:00 41.63586 28.32340 15058 ft 353 kts 313°
2026-05-05 20:00 41.65147 28.29785 15592 ft 357 kts 313°
2026-05-05 20:01 41.66722 28.27199 16155 ft 360 kts 312°
2026-05-05 20:01 41.68306 28.24597 16712 ft 362 kts 312°
2026-05-05 20:01 41.69884 28.22007 17252 ft 366 kts 312°
2026-05-05 20:01 41.71495 28.19358 17795 ft 369 kts 312°
2026-05-05 20:02 41.73119 28.16685 18336 ft 372 kts 312°
2026-05-05 20:02 41.74760 28.13985 18807 ft 375 kts 311°
2026-05-05 20:02 41.76411 28.11264 19263 ft 378 kts 311°
2026-05-05 20:02 41.78071 28.08523 19744 ft 381 kts 311°
2026-05-05 20:03 41.79745 28.05759 20216 ft 384 kts 311°
2026-05-05 20:03 41.81436 28.02969 20681 ft 387 kts 311°
2026-05-05 20:03 41.83140 28.00159 21135 ft 391 kts 311°
2026-05-05 20:03 41.84858 27.97317 21579 ft 394 kts 311°
2026-05-05 20:04 41.86588 27.94449 22029 ft 397 kts 311°
2026-05-05 20:04 41.88335 27.91554 22455 ft 400 kts 310°
2026-05-05 20:04 41.90091 27.88643 22915 ft 403 kts 310°
2026-05-05 20:04 41.91860 27.85711 23351 ft 406 kts 310°
2026-05-05 20:05 41.93638 27.82755 23748 ft 408 kts 310°
2026-05-05 20:05 41.95420 27.79784 24153 ft 409 kts 310°
2026-05-05 20:05 41.97264 27.76876 24501 ft 409 kts 316°
2026-05-05 20:05 41.99264 27.74140 24838 ft 412 kts 316°
2026-05-05 20:06 42.01278 27.71389 25176 ft 414 kts 316°
2026-05-05 20:06 42.03310 27.68619 25513 ft 417 kts 316°
2026-05-05 20:06 42.05350 27.65835 25832 ft 419 kts 316°
2026-05-05 20:06 42.07399 27.63031 26159 ft 422 kts 316°
2026-05-05 20:07 42.09456 27.60207 26501 ft 423 kts 316°
2026-05-05 20:07 42.11518 27.57368 26872 ft 424 kts 316°
2026-05-05 20:07 42.13584 27.54518 27198 ft 426 kts 315°
2026-05-05 20:07 42.15664 27.51651 27482 ft 430 kts 315°
2026-05-05 20:08 42.17764 27.48759 27773 ft 432 kts 315°
2026-05-05 20:08 42.19872 27.45851 28074 ft 435 kts 315°
2026-05-05 20:08 42.21992 27.42926 28370 ft 437 kts 315°
2026-05-05 20:08 42.24124 27.39985 28668 ft 440 kts 315°
2026-05-05 20:09 42.26266 27.37030 28990 ft 441 kts 315°
2026-05-05 20:09 42.28417 27.34059 29314 ft 443 kts 315°
2026-05-05 20:09 42.30544 27.31116 29578 ft 445 kts 315°
2026-05-05 20:09 42.32708 27.28114 29861 ft 447 kts 315°
2026-05-05 20:10 42.34882 27.25090 30148 ft 450 kts 315°
2026-05-05 20:10 42.37070 27.22046 30395 ft 452 kts 315°
2026-05-05 20:10 42.39261 27.18993 30660 ft 453 kts 315°
2026-05-05 20:10 42.41449 27.15943 31017 ft 450 kts 315°
2026-05-05 20:11 42.43612 27.12925 31579 ft 444 kts 316°
2026-05-05 20:11 42.45757 27.09925 31974 ft 443 kts 315°
2026-05-05 20:11 42.47898 27.06929 32293 ft 443 kts 315°
2026-05-05 20:11 42.50040 27.03937 32618 ft 442 kts 315°
2026-05-05 20:12 42.52177 27.00946 32949 ft 441 kts 315°
2026-05-05 20:12 42.54311 26.97956 33294 ft 440 kts 315°
2026-05-05 20:12 42.56436 26.94976 33642 ft 439 kts 315°
2026-05-05 20:12 42.58552 26.92002 34024 ft 436 kts 316°
2026-05-05 20:13 42.60647 26.89050 34385 ft 433 kts 315°
2026-05-05 20:13 42.62732 26.86110 34683 ft 432 kts 315°
2026-05-05 20:13 42.64811 26.83175 34933 ft 431 kts 315°
2026-05-05 20:13 42.66889 26.80238 35195 ft 430 kts 315°
2026-05-05 20:14 42.68961 26.77307 35449 ft 430 kts 315°
2026-05-05 20:14 42.71032 26.74381 35704 ft 429 kts 315°
2026-05-05 20:14 42.73103 26.71459 35935 ft 429 kts 315°
2026-05-05 20:14 42.75175 26.68531 36050 ft 429 kts 315°
2026-05-05 20:15 42.77237 26.65605 36059 ft 428 kts 315°
2026-05-05 20:15 42.81303 26.59686 36063 ft 429 kts 310°
2026-05-05 20:16 42.84643 26.52928 36058 ft 430 kts 305°
2026-05-05 20:16 42.87904 26.46087 36039 ft 431 kts 305°
2026-05-05 20:17 42.91162 26.39239 36051 ft 430 kts 305°
2026-05-05 20:17 42.94416 26.32385 36051 ft 430 kts 305°
2026-05-05 20:18 42.97667 26.25528 36054 ft 431 kts 305°
2026-05-05 20:18 43.00892 26.18695 36033 ft 430 kts 305°
2026-05-05 20:19 43.04127 26.11827 36055 ft 430 kts 305°
2026-05-05 20:19 43.07361 26.04959 36045 ft 429 kts 305°
2026-05-05 20:20 43.10579 25.98090 36049 ft 429 kts 305°
2026-05-05 20:20 43.13256 25.92375 36060 ft 429 kts 305°
2026-05-05 20:21 43.16470 25.85503 36047 ft 428 kts 305°
2026-05-05 20:21 43.19677 25.78623 36051 ft 428 kts 304°
2026-05-05 20:22 43.22875 25.71746 36050 ft 428 kts 304°
2026-05-05 20:22 43.26070 25.64857 36056 ft 428 kts 304°
2026-05-05 20:23 43.29255 25.57964 36046 ft 428 kts 304°
2026-05-05 20:23 43.32439 25.51060 36042 ft 428 kts 304°
2026-05-05 20:24 43.35622 25.44161 36044 ft 428 kts 304°
2026-05-05 20:24 43.38803 25.37250 36011 ft 428 kts 304°
2026-05-05 20:25 43.41957 25.30381 36026 ft 427 kts 304°
2026-05-05 20:25 43.45113 25.23463 36026 ft 427 kts 304°
2026-05-05 20:26 43.48268 25.16542 36028 ft 427 kts 304°
2026-05-05 20:26 43.51422 25.09618 36030 ft 426 kts 304°
2026-05-05 20:27 43.54565 25.02697 36036 ft 426 kts 304°
2026-05-05 20:27 43.57703 24.95768 36031 ft 426 kts 304°
2026-05-05 20:28 43.60843 24.88823 36026 ft 427 kts 304°
2026-05-05 20:28 43.63982 24.81868 36025 ft 427 kts 304°
2026-05-05 20:29 43.67113 24.74905 36017 ft 426 kts 304°
2026-05-05 20:29 43.70209 24.67993 36019 ft 426 kts 304°
2026-05-05 20:30 43.73328 24.61030 36023 ft 426 kts 304°
2026-05-05 20:30 43.76605 24.54232 36020 ft 423 kts 311°
2026-05-05 20:31 43.80318 24.47914 36017 ft 423 kts 310°
2026-05-05 20:31 43.84021 24.41580 36018 ft 423 kts 310°
2026-05-05 20:32 43.87717 24.35241 36018 ft 423 kts 310°
2026-05-05 20:32 43.91414 24.28902 36019 ft 423 kts 310°
2026-05-05 20:33 43.95104 24.22548 36018 ft 423 kts 310°
2026-05-05 20:33 43.98790 24.16181 36019 ft 423 kts 310°
2026-05-05 20:34 44.02450 24.09850 36016 ft 423 kts 310°
2026-05-05 20:34 44.06135 24.03472 36019 ft 423 kts 310°
2026-05-05 20:35 44.09812 23.97092 36002 ft 423 kts 310°
2026-05-05 20:35 44.13491 23.90694 36009 ft 423 kts 310°
2026-05-05 20:36 44.17173 23.84282 36015 ft 423 kts 310°
2026-05-05 20:36 44.20843 23.77872 36019 ft 424 kts 310°
2026-05-05 20:37 44.24509 23.71439 36013 ft 424 kts 309°
2026-05-05 20:37 44.28173 23.64999 36016 ft 424 kts 309°
2026-05-05 20:38 44.31839 23.58553 36019 ft 424 kts 309°
2026-05-05 20:38 44.35479 23.52143 36020 ft 424 kts 309°
2026-05-05 20:39 44.39136 23.45678 36017 ft 424 kts 309°
2026-05-05 20:39 44.42782 23.39211 36026 ft 424 kts 309°
2026-05-05 20:40 44.46430 23.32734 36024 ft 424 kts 309°
2026-05-05 20:40 44.50074 23.26252 36027 ft 423 kts 309°
2026-05-05 20:41 44.53716 23.19766 36023 ft 423 kts 308°
2026-05-05 20:41 44.57345 23.13270 36023 ft 424 kts 308°
2026-05-05 20:42 44.60983 23.06750 36018 ft 424 kts 308°
2026-05-05 20:42 44.64613 23.00231 36019 ft 424 kts 308°
2026-05-05 20:43 44.68251 22.93697 36019 ft 425 kts 308°
2026-05-05 20:43 44.71882 22.87146 36029 ft 425 kts 308°
2026-05-05 20:44 44.75481 22.80628 36029 ft 425 kts 308°
2026-05-05 20:44 44.79108 22.74062 36031 ft 425 kts 308°
2026-05-05 20:45 44.84539 22.64186 36042 ft 425 kts 308°
2026-05-05 20:45 44.88162 22.57598 36039 ft 425 kts 308°
2026-05-05 20:46 44.91770 22.51005 36050 ft 425 kts 308°
2026-05-05 20:46 44.95378 22.44392 36044 ft 425 kts 308°
2026-05-05 20:47 44.98987 22.37764 36047 ft 426 kts 308°
2026-05-05 20:47 45.02599 22.31132 36042 ft 426 kts 307°
2026-05-05 20:48 45.06202 22.24488 36044 ft 425 kts 307°
2026-05-05 20:48 45.09775 22.17884 36045 ft 425 kts 307°
2026-05-05 20:49 45.13366 22.11229 36044 ft 425 kts 307°
2026-05-05 20:49 45.16951 22.04573 36028 ft 425 kts 307°
2026-05-05 20:50 45.20536 21.97903 36034 ft 425 kts 307°
2026-05-05 20:50 45.24114 21.91231 36029 ft 425 kts 307°
2026-05-05 20:51 45.27689 21.84532 36026 ft 425 kts 307°
2026-05-05 20:51 45.31261 21.77839 36012 ft 426 kts 307°
2026-05-05 20:52 45.34839 21.71129 36010 ft 426 kts 307°
2026-05-05 20:52 45.38418 21.64412 36005 ft 426 kts 307°
2026-05-05 20:53 45.41962 21.57725 35997 ft 426 kts 307°
2026-05-05 20:53 45.45519 21.50978 35997 ft 426 kts 307°
2026-05-05 20:54 45.49079 21.44229 35994 ft 426 kts 306°
2026-05-05 20:54 45.52634 21.37471 35994 ft 426 kts 306°
2026-05-05 20:55 45.56182 21.30696 35986 ft 426 kts 306°
2026-05-05 20:55 45.59729 21.23915 35987 ft 426 kts 306°
2026-05-05 20:56 45.63275 21.17129 35974 ft 427 kts 306°
2026-05-05 20:56 45.66896 21.10404 35973 ft 427 kts 308°
2026-05-05 20:57 45.70728 21.03905 35983 ft 427 kts 309°
2026-05-05 20:57 45.74589 20.97437 35982 ft 427 kts 309°
2026-05-05 20:58 45.78400 20.90909 35975 ft 427 kts 308°
2026-05-05 20:58 45.82177 20.84343 35973 ft 427 kts 308°
2026-05-05 20:59 45.85924 20.77812 35975 ft 427 kts 308°
2026-05-05 20:59 45.89707 20.71241 35976 ft 427 kts 308°
2026-05-05 21:00 45.93485 20.64654 35979 ft 427 kts 308°
2026-05-05 21:00 45.97261 20.58057 35976 ft 427 kts 308°
2026-05-05 21:01 46.01034 20.51452 35970 ft 427 kts 308°
2026-05-05 21:01 46.04800 20.44827 35966 ft 428 kts 308°
2026-05-05 21:02 46.08565 20.38188 35967 ft 428 kts 308°
2026-05-05 21:02 46.12337 20.31542 35970 ft 429 kts 308°
2026-05-05 21:03 46.16112 20.24882 35976 ft 429 kts 308°
2026-05-05 21:03 46.19852 20.18249 35977 ft 429 kts 307°
2026-05-05 21:04 46.23615 20.11561 35975 ft 429 kts 308°
2026-05-05 21:04 46.27375 20.04851 35975 ft 430 kts 307°
2026-05-05 21:05 46.31133 19.98133 35976 ft 430 kts 307°
2026-05-05 21:05 46.34896 19.91399 35985 ft 430 kts 307°
2026-05-05 21:06 46.38652 19.84648 35989 ft 430 kts 307°
2026-05-05 21:06 46.41925 19.77429 35990 ft 429 kts 299°
2026-05-05 21:07 46.44963 19.69984 35985 ft 429 kts 299°
2026-05-05 21:07 46.48005 19.62532 35985 ft 429 kts 299°
2026-05-05 21:08 46.51021 19.55119 35987 ft 430 kts 299°
2026-05-05 21:08 46.54048 19.47634 35991 ft 430 kts 299°
2026-05-05 21:09 46.57069 19.40133 35992 ft 430 kts 299°
2026-05-05 21:09 46.60093 19.32619 35997 ft 431 kts 299°
2026-05-05 21:10 46.63121 19.25092 35991 ft 431 kts 299°
2026-05-05 21:10 46.66144 19.17550 35990 ft 431 kts 298°
2026-05-05 21:11 46.69160 19.09984 35987 ft 431 kts 298°
2026-05-05 21:11 46.72175 19.02422 35987 ft 432 kts 298°
2026-05-05 21:12 46.75183 18.94862 35988 ft 431 kts 298°
2026-05-05 21:12 46.78188 18.87284 35985 ft 431 kts 298°
2026-05-05 21:13 46.81160 18.79761 35980 ft 431 kts 298°
2026-05-05 21:13 46.84146 18.72184 35977 ft 430 kts 298°
2026-05-05 21:14 46.87124 18.64599 35979 ft 430 kts 298°
2026-05-05 21:14 46.90093 18.57014 35975 ft 429 kts 298°
2026-05-05 21:15 46.93060 18.49436 35977 ft 429 kts 298°
2026-05-05 21:15 46.96001 18.41886 35966 ft 429 kts 298°
2026-05-05 21:16 46.98949 18.34291 35960 ft 429 kts 298°
2026-05-05 21:16 47.01900 18.26673 35961 ft 429 kts 298°
2026-05-05 21:17 47.04841 18.19057 35953 ft 429 kts 298°
2026-05-05 21:17 47.07748 18.11414 35951 ft 429 kts 297°
2026-05-05 21:18 47.10102 18.05019 35942 ft 429 kts 296°
2026-05-05 21:18 47.12914 17.97300 35942 ft 429 kts 296°
2026-05-05 21:19 47.15735 17.89580 35939 ft 428 kts 296°
2026-05-05 21:19 47.18549 17.81888 35940 ft 427 kts 296°
2026-05-05 21:20 47.21369 17.74185 35921 ft 427 kts 297°
2026-05-05 21:20 47.24176 17.66487 35916 ft 427 kts 296°
2026-05-05 21:21 47.26969 17.58777 35916 ft 427 kts 296°
2026-05-05 21:21 47.29755 17.51073 35913 ft 426 kts 296°
2026-05-05 21:22 47.32537 17.43351 35917 ft 427 kts 296°
2026-05-05 21:22 47.35306 17.35656 35911 ft 427 kts 296°
2026-05-05 21:23 47.38091 17.27895 35909 ft 428 kts 296°
2026-05-05 21:23 47.40871 17.20131 35901 ft 428 kts 296°
2026-05-05 21:24 47.43641 17.12360 35896 ft 428 kts 295°
2026-05-05 21:24 47.46408 17.04581 35878 ft 428 kts 295°
2026-05-05 21:25 47.49169 16.96794 35871 ft 427 kts 295°
2026-05-05 21:25 47.51925 16.89003 35866 ft 427 kts 295°
2026-05-05 21:26 47.54672 16.81203 35867 ft 427 kts 295°
2026-05-05 21:26 47.57406 16.73482 35866 ft 427 kts 296°
2026-05-05 21:27 47.60461 16.65921 35860 ft 428 kts 300°
2026-05-05 21:27 47.63669 16.58478 35846 ft 428 kts 300°
2026-05-05 21:28 47.66826 16.50991 35848 ft 428 kts 299°
2026-05-05 21:28 47.69922 16.43455 35832 ft 428 kts 298°
2026-05-05 21:29 47.73005 16.35888 35836 ft 428 kts 298°
2026-05-05 21:29 47.76093 16.28331 35821 ft 428 kts 298°
2026-05-05 21:30 47.79184 16.20773 35817 ft 428 kts 298°
2026-05-05 21:30 47.82265 16.13195 35809 ft 429 kts 298°
2026-05-05 21:31 47.85345 16.05586 35809 ft 429 kts 298°
2026-05-05 21:31 47.88425 15.97962 35807 ft 430 kts 298°
2026-05-05 21:32 47.91499 15.90316 35816 ft 430 kts 298°
2026-05-05 21:32 47.94575 15.82656 35824 ft 431 kts 298°
2026-05-05 21:33 47.97659 15.74984 35810 ft 431 kts 298°
2026-05-05 21:33 48.00740 15.67297 35812 ft 432 kts 298°
2026-05-05 21:34 48.03818 15.59576 35819 ft 432 kts 298°
2026-05-05 21:34 48.06860 15.51903 35806 ft 432 kts 298°
2026-05-05 21:35 48.09921 15.44169 35824 ft 432 kts 297°
2026-05-05 21:35 48.12978 15.36433 35818 ft 432 kts 297°
2026-05-05 21:36 48.16031 15.28681 35808 ft 432 kts 297°
2026-05-05 21:36 48.19079 15.20919 35811 ft 432 kts 297°
2026-05-05 21:37 48.22117 15.13145 35824 ft 432 kts 297°
2026-05-05 21:37 48.25165 15.05365 35815 ft 433 kts 297°
2026-05-05 21:38 48.28211 14.97565 35805 ft 433 kts 297°
2026-05-05 21:38 48.31248 14.89742 35811 ft 434 kts 297°
2026-05-05 21:39 48.34273 14.81897 35812 ft 434 kts 296°
2026-05-05 21:39 48.37303 14.74046 35842 ft 434 kts 296°
2026-05-05 21:40 48.40335 14.66176 35833 ft 434 kts 296°
2026-05-05 21:40 48.43358 14.58295 35828 ft 435 kts 296°
2026-05-05 21:41 48.46375 14.50399 35830 ft 435 kts 296°
2026-05-05 21:41 48.49393 14.42494 35832 ft 435 kts 296°
2026-05-05 21:42 48.52405 14.34574 35830 ft 436 kts 296°
2026-05-05 21:42 48.55400 14.26672 35826 ft 436 kts 296°
2026-05-05 21:43 48.58411 14.18701 35825 ft 437 kts 296°
2026-05-05 21:43 48.61421 14.10711 35838 ft 438 kts 295°
2026-05-05 21:44 48.64428 14.02705 35841 ft 438 kts 295°
2026-05-05 21:44 48.67431 13.94684 35861 ft 438 kts 295°
2026-05-05 21:45 48.70434 13.86647 35859 ft 439 kts 295°
2026-05-05 21:45 48.73434 13.78599 35857 ft 439 kts 295°
2026-05-05 21:46 48.76419 13.70550 35860 ft 438 kts 295°
2026-05-05 21:46 48.79471 13.62522 35883 ft 439 kts 296°
2026-05-05 21:47 48.82591 13.54537 35855 ft 440 kts 296°
2026-05-05 21:47 48.85707 13.46512 35860 ft 441 kts 295°
2026-05-05 21:48 48.88791 13.38460 35859 ft 441 kts 295°
2026-05-05 21:48 48.91861 13.30388 35866 ft 441 kts 295°
2026-05-05 21:49 48.94936 13.22295 35881 ft 442 kts 295°
2026-05-05 21:49 48.97990 13.14250 35870 ft 442 kts 295°
2026-05-05 21:50 49.01066 13.06129 35870 ft 442 kts 295°
2026-05-05 21:50 49.04133 12.98007 35865 ft 443 kts 295°
2026-05-05 21:51 49.07196 12.89852 35859 ft 443 kts 295°
2026-05-05 21:51 49.10260 12.81677 35861 ft 443 kts 295°
2026-05-05 21:52 49.14842 12.69414 35859 ft 443 kts 294°
2026-05-05 21:53 49.17880 12.61217 35861 ft 443 kts 294°
2026-05-05 21:53 49.20918 12.53009 35860 ft 444 kts 294°
2026-05-05 21:54 49.23970 12.44767 35854 ft 444 kts 294°
2026-05-05 21:54 49.27008 12.36524 35848 ft 445 kts 294°
2026-05-05 21:55 49.30021 12.28316 35850 ft 445 kts 294°
2026-05-05 21:55 49.33052 12.20032 35852 ft 446 kts 294°
2026-05-05 21:56 49.36090 12.11715 35852 ft 447 kts 294°
2026-05-05 21:56 49.39130 12.03373 35859 ft 448 kts 294°
2026-05-05 21:57 49.42161 11.95023 35846 ft 448 kts 294°
2026-05-05 21:57 49.45191 11.86638 35846 ft 449 kts 294°
2026-05-05 21:58 49.48219 11.78225 35849 ft 449 kts 294°
2026-05-05 21:58 49.51245 11.69808 35881 ft 450 kts 295°
2026-05-05 21:59 49.54248 11.61424 35855 ft 450 kts 295°
2026-05-05 21:59 49.57272 11.52925 35854 ft 450 kts 294°
2026-05-05 22:00 49.60177 11.44398 35850 ft 450 kts 293°
2026-05-05 22:00 49.63018 11.35807 35848 ft 450 kts 293°
2026-05-05 22:01 49.65871 11.27205 35849 ft 451 kts 294°
2026-05-05 22:01 49.68752 11.18581 35862 ft 453 kts 294°
2026-05-05 22:02 49.71640 11.09925 35856 ft 454 kts 294°
2026-05-05 22:02 49.74522 11.01238 35855 ft 454 kts 294°
2026-05-05 22:03 49.77399 10.92528 35849 ft 455 kts 294°
2026-05-05 22:03 49.79783 10.85273 35864 ft 455 kts 294°
2026-05-05 22:04 49.83118 10.75091 35850 ft 456 kts 294°
2026-05-05 22:04 49.85522 10.67741 35847 ft 456 kts 294°
2026-05-05 22:05 49.88360 10.59018 35848 ft 456 kts 294°
2026-05-05 22:05 49.91239 10.50162 35849 ft 457 kts 294°
2026-05-05 22:06 49.94074 10.41417 35860 ft 457 kts 294°
2026-05-05 22:06 49.96911 10.32585 35844 ft 457 kts 294°
2026-05-05 22:07 49.99747 10.23729 35844 ft 458 kts 294°
2026-05-05 22:07 50.02591 10.14871 35844 ft 458 kts 294°
2026-05-05 22:08 50.05428 10.05968 35867 ft 459 kts 294°
2026-05-05 22:08 50.08259 9.97066 35860 ft 459 kts 294°
2026-05-05 22:09 50.11081 9.88161 35860 ft 459 kts 293°
2026-05-05 22:09 50.13890 9.79238 35859 ft 459 kts 294°
2026-05-05 22:10 50.16706 9.70299 35857 ft 459 kts 293°
2026-05-05 22:10 50.19512 9.61350 35865 ft 459 kts 293°
2026-05-05 22:11 50.22299 9.52391 35855 ft 459 kts 293°
2026-05-05 22:11 50.25074 9.43476 35852 ft 459 kts 293°
2026-05-05 22:12 50.27872 9.34493 35850 ft 460 kts 293°
2026-05-05 22:12 50.30656 9.25487 35855 ft 460 kts 293°
2026-05-05 22:13 50.33421 9.16470 35851 ft 460 kts 293°
2026-05-05 22:13 50.35590 9.07112 35848 ft 457 kts 284°
2026-05-05 22:14 50.37479 8.97599 35848 ft 457 kts 284°
2026-05-05 22:14 50.39363 8.88058 35846 ft 458 kts 284°
2026-05-05 22:15 50.41226 8.78590 35847 ft 458 kts 284°
2026-05-05 22:15 50.43090 8.69053 35845 ft 458 kts 284°
2026-05-05 22:16 50.44742 8.59443 35844 ft 454 kts 276°
2026-05-05 22:16 50.45717 8.49660 35841 ft 454 kts 276°
2026-05-05 22:17 50.46693 8.39861 35841 ft 454 kts 276°
2026-05-05 22:17 50.47660 8.30073 35855 ft 454 kts 276°
2026-05-05 22:18 50.48619 8.20279 35846 ft 454 kts 276°
2026-05-05 22:18 50.49572 8.10481 35842 ft 453 kts 276°
2026-05-05 22:19 50.50511 8.00702 35840 ft 453 kts 276°
2026-05-05 22:19 50.51446 7.90912 35841 ft 453 kts 276°
2026-05-05 22:20 50.52374 7.81120 35849 ft 452 kts 276°
2026-05-05 22:20 50.53285 7.71349 35844 ft 452 kts 275°
2026-05-05 22:21 50.54186 7.61561 35846 ft 452 kts 275°
2026-05-05 22:21 50.55082 7.51775 35846 ft 452 kts 275°
2026-05-05 22:22 50.55868 7.42039 35853 ft 450 kts 269°
2026-05-05 22:22 50.55953 7.32217 35843 ft 450 kts 268°
2026-05-05 22:23 50.56017 7.22377 35841 ft 450 kts 268°
2026-05-05 22:23 50.56039 7.12529 35839 ft 450 kts 266°
2026-05-05 22:24 50.55827 7.02701 35838 ft 449 kts 264°
2026-05-05 22:24 50.55538 6.92889 35849 ft 450 kts 265°
2026-05-05 22:25 50.55284 6.83043 35844 ft 451 kts 265°
2026-05-05 22:25 50.55040 6.73195 35839 ft 450 kts 265°
2026-05-05 22:26 50.55633 6.63356 35710 ft 456 kts 278°
2026-05-05 22:26 50.56239 6.58450 35090 ft 459 kts 278°
2026-05-05 22:26 50.56842 6.53531 34588 ft 457 kts 278°
2026-05-05 22:26 50.57436 6.48637 34097 ft 456 kts 278°
2026-05-05 22:27 50.58023 6.43733 33553 ft 454 kts 278°
2026-05-05 22:27 50.58595 6.38928 33062 ft 451 kts 278°
2026-05-05 22:27 50.59171 6.34094 32561 ft 448 kts 278°
2026-05-05 22:27 50.59743 6.29286 32067 ft 445 kts 278°
2026-05-05 22:28 50.60311 6.24500 31584 ft 442 kts 278°
2026-05-05 22:28 50.60870 6.19771 31107 ft 439 kts 278°
2026-05-05 22:28 50.61423 6.15051 30644 ft 436 kts 278°
2026-05-05 22:28 50.61968 6.10373 30174 ft 433 kts 278°
2026-05-05 22:29 50.62507 6.05723 29698 ft 430 kts 278°
2026-05-05 22:29 50.63044 6.01105 29222 ft 426 kts 278°
2026-05-05 22:29 50.63572 5.96546 28795 ft 421 kts 278°
2026-05-05 22:29 50.64093 5.92027 28366 ft 417 kts 278°
2026-05-05 22:30 50.64625 5.87563 27937 ft 413 kts 282°
2026-05-05 22:30 50.65492 5.83261 27530 ft 411 kts 292°
2026-05-05 22:30 50.66742 5.79232 27128 ft 408 kts 296°
2026-05-05 22:30 50.68015 5.75314 26711 ft 406 kts 296°
2026-05-05 22:31 50.69289 5.71356 26325 ft 403 kts 296°
2026-05-05 22:31 50.70548 5.67420 25909 ft 401 kts 296°
2026-05-05 22:31 50.71797 5.63505 25520 ft 398 kts 296°
2026-05-05 22:31 50.73037 5.59615 25122 ft 396 kts 296°
2026-05-05 22:32 50.74270 5.55753 24697 ft 394 kts 296°
2026-05-05 22:32 50.75506 5.51890 24277 ft 392 kts 296°
2026-05-05 22:32 50.76729 5.48066 23859 ft 389 kts 296°
2026-05-05 22:32 50.77943 5.44256 23434 ft 387 kts 296°
2026-05-05 22:33 50.79148 5.40457 22956 ft 384 kts 295°
2026-05-05 22:33 50.80337 5.36701 22514 ft 380 kts 295°
2026-05-05 22:33 50.81515 5.32984 22099 ft 376 kts 296°
2026-05-05 22:33 50.82679 5.29311 21665 ft 372 kts 296°
2026-05-05 22:34 50.83831 5.25669 21252 ft 368 kts 295°
2026-05-05 22:34 50.84970 5.22053 20834 ft 365 kts 295°
2026-05-05 22:34 50.86097 5.18465 20405 ft 363 kts 295°
2026-05-05 22:34 50.87137 5.14854 19989 ft 359 kts 288°
2026-05-05 22:35 50.87741 5.11046 19576 ft 355 kts 276°
2026-05-05 22:35 50.87944 5.07176 19174 ft 352 kts 272°
2026-05-05 22:35 50.88113 5.03321 18768 ft 349 kts 272°
2026-05-05 22:35 50.88287 4.99514 18364 ft 346 kts 273°
2026-05-05 22:36 50.88463 4.95732 17937 ft 343 kts 273°
2026-05-05 22:36 50.88631 4.92034 17519 ft 338 kts 273°
2026-05-05 22:36 50.88793 4.88338 17130 ft 334 kts 273°
2026-05-05 22:36 50.88950 4.84689 16749 ft 331 kts 272°
2026-05-05 22:37 50.89106 4.81076 16363 ft 327 kts 273°
2026-05-05 22:37 50.89259 4.77491 15985 ft 324 kts 273°
2026-05-05 22:37 50.89407 4.73947 15609 ft 321 kts 273°
2026-05-05 22:37 50.89554 4.70432 15244 ft 319 kts 273°
2026-05-05 22:38 50.89698 4.66942 14872 ft 317 kts 276°
2026-05-05 22:38 50.89840 4.63478 14505 ft 315 kts 275°
2026-05-05 22:38 50.89980 4.60026 14137 ft 313 kts 275°
2026-05-05 22:38 50.90117 4.56592 13773 ft 312 kts 276°
2026-05-05 22:39 50.90254 4.53176 13381 ft 310 kts 275°
2026-05-05 22:39 50.90343 4.49804 12980 ft 309 kts 274°
2026-05-05 22:39 50.90395 4.46368 12580 ft 308 kts 273°
2026-05-05 22:39 50.90431 4.42982 12196 ft 307 kts 272°
2026-05-05 22:40 50.90462 4.39649 11808 ft 307 kts 273°
2026-05-05 22:40 50.90498 4.36279 11419 ft 306 kts 273°
2026-05-05 22:40 50.90535 4.32914 11022 ft 305 kts 272°
2026-05-05 22:40 50.90572 4.29570 10653 ft 304 kts 273°
2026-05-05 22:41 50.90611 4.26231 10382 ft 300 kts 273°
2026-05-05 22:41 50.90485 4.22920 9997 ft 303 kts 257°
2026-05-05 22:41 50.89646 4.19906 9755 ft 300 kts 235°
2026-05-05 22:41 50.88155 4.17627 9429 ft 299 kts 211°
2026-05-05 22:42 50.86238 4.16435 9087 ft 295 kts 188°
2026-05-05 22:42 50.84203 4.16477 8666 ft 293 kts 166°
2026-05-05 22:42 50.82222 4.17251 8227 ft 293 kts 163°
2026-05-05 22:42 50.80540 4.17922 7917 ft 292 kts 165°
2026-05-05 22:43 50.78757 4.18625 7616 ft 290 kts 165°
2026-05-05 22:43 50.76808 4.19393 7276 ft 289 kts 163°
2026-05-05 22:43 50.74858 4.20161 6917 ft 288 kts 163°
2026-05-05 22:43 50.72927 4.20917 6660 ft 282 kts 164°
2026-05-05 22:44 50.71081 4.21709 6526 ft 266 kts 155°
2026-05-05 22:44 50.69678 4.23367 6357 ft 246 kts 123°
2026-05-05 22:44 50.69059 4.25771 6033 ft 235 kts 92°
2026-05-05 22:44 50.69238 4.28257 5704 ft 231 kts 74°
2026-05-05 22:45 50.69634 4.30704 5371 ft 230 kts 74°
2026-05-05 22:45 50.70024 4.33148 5033 ft 229 kts 74°
2026-05-05 22:45 50.70410 4.35570 4747 ft 225 kts 75°
2026-05-05 22:45 50.70786 4.37948 4411 ft 221 kts 74°
2026-05-05 22:46 50.71192 4.40243 4058 ft 212 kts 64°
2026-05-05 22:46 50.72064 4.42002 3718 ft 201 kts 37°
2026-05-05 22:46 50.73327 4.42860 3414 ft 197 kts 17°
2026-05-05 22:46 50.74621 4.43401 3137 ft 186 kts 18°
2026-05-05 22:47 50.75836 4.43907 2869 ft 175 kts 18°
2026-05-05 22:47 50.76981 4.44375 2636 ft 165 kts 18°
2026-05-05 22:47 50.78063 4.44815 2420 ft 156 kts 18°
2026-05-05 22:47 50.79074 4.45226 2226 ft 143 kts 17°
2026-05-05 22:48 50.80025 4.45613 2021 ft 139 kts 18°
2026-05-05 22:48 50.80956 4.45992 1829 ft 136 kts 18°
2026-05-05 22:48 50.81866 4.46362 1644 ft 135 kts 19°
2026-05-05 22:48 50.82771 4.46730 1458 ft 136 kts 17°
2026-05-05 22:49 50.83683 4.47101 1269 ft 136 kts 16°
2026-05-05 22:49 50.84603 4.47475 1077 ft 135 kts 17°
2026-05-05 22:49 50.85517 4.47847 883 ft 136 kts 15°
2026-05-05 22:49 50.86433 4.48220 693 ft 135 kts 14°
2026-05-05 22:50 50.87347 4.48593 516 ft 137 kts 14°
2026-05-05 22:50 50.88267 4.48972 325 ft 138 kts 14°
2026-05-05 22:50 50.89187 4.49346 178 ft 129 kts 14°
2026-05-05 22:50 50.89920 4.49647 137 ft 92 kts 14°
2026-05-05 22:51 50.90425 4.49848 125 ft 57 kts 15°
2026-05-05 22:51 50.90663 4.49937 122 ft 28 kts
2026-05-05 22:51 50.90821 4.49904 121 ft 14 kts 341°
2026-05-05 22:51 50.90861 4.49845 122 ft 5 kts 277°
2026-05-05 22:52 50.90855 4.49800 122 ft 4 kts 249°
2026-05-05 22:52 50.90831 4.49753 121 ft 7 kts 218°
2026-05-05 22:52 50.90777 4.49723 124 ft 10 kts 194°
2026-05-05 22:52 50.90704 4.49694 122 ft 12 kts 193°
2026-05-05 22:53 50.90613 4.49657 124 ft 15 kts 194°
2026-05-05 22:53 50.90507 4.49614 119 ft 17 kts 194°
2026-05-05 22:53 50.90387 4.49564 125 ft 19 kts 194°
2026-05-05 22:53 50.90264 4.49514 124 ft 17 kts 194°
2026-05-05 22:54 50.90165 4.49474 129 ft 14 kts 194°
2026-05-05 22:54 50.90054 4.49427 128 ft 15 kts 197°
2026-05-05 22:54 50.89994 4.49314 132 ft 12 kts 246°
2026-05-05 22:54 50.89970 4.49212 134 ft 8 kts 255°
2026-05-05 22:55 50.89945 4.49110 136 ft 11 kts 245°
2026-05-05 22:55 50.89912 4.48997 136 ft 11 kts 245°
2026-05-05 22:55 50.89884 4.48899 136 ft 9 kts 245°
2026-05-05 22:55 50.89901 4.48834 134 ft 7 kts 326°
2026-05-05 22:56 50.89949 4.48797 126 ft 4 kts 335°
2026-05-05 22:56 50.89963 4.48787 127 ft 0 kts 335°